User: anonymous   Login
Location: Gleizolles
(44.4833°N, 6.7667°E)
Time: 09:40:30
(UTC+00:00)
Language:

UWE-3 - Orbit

View from above orbital plane
View from above orbital plane
View from above satellite
View from above satellite

Ground track
Ground track

The orbit data is extracted from the following two-line orbital elements,

1 39446U 13066AG  22330.82449190  .00001794  00000-0  23411-3 0  9994
2 39446  97.7087 288.1098 0066231 280.3323  79.0428 14.80240035484475
Epoch (UTC): 26 November 2022 19:47:16
Eccentricity: 0.0066231
inclination: 97.7087°
perigee height: 582 km
apogee height: 675 km
right ascension of ascending node: 288.1098°
argument of perigee: 280.3323°
revolutions per day: 14.80240035
mean anomaly at epoch: 79.0428°
orbit number at epoch: 48447

The dashed part of the orbit path shows where the satellite is in the earth's shadow,  

DLR